{"data":{"norad_id":63265,"epoch":"2026-05-24T22:47:40.915968Z","epoch_age_seconds":89550,"freshness":"FRESH","line1":"1 63265U 25053A   26144.94977912  .00199332  00000+0  15080-2 0  9994","line2":"2 63265  43.0030  12.5204 0002807 282.6592  77.3962 15.71027448 69669","mean_motion":15.71027448,"eccentricity":0.0002807,"inclination_deg":43.003,"raan_deg":12.5204,"arg_perigee_deg":282.6592,"mean_anomaly_deg":77.3962,"bstar":0.001508,"rev_number":6966,"period_min":91.659760740221,"perigee_km":354.06909252795,"apogee_km":357.84961422073,"semimajor_km":6734.0963533743,"source":"CELESTRAK","updated_at":"2026-05-25T13:38:19.923687Z"}}